DMSP 5D-2 F13 DEB

Satellite information

Favourite Embed

Satellite Type and Status

DEBRISIN ORBIT

Key statistics

Satellite DMSP 5D-2 F13 DEB at a glance.

Uptime

11063

Days in orbit

Revolutions

≈ 14.4

Per day

Orbit

SSO

Sun Synchronous Orbit

Inclination

98.7

Latest

Satellite identification and parameters

Extended collection of information and parameters for DMSP 5D-2 F13 DEB.

Object identification

Identified? True

Debris? True

Object name: DMSP 5D-2 F13 DEB

International designator: 1995-015CN

Object number (NORAD): 40499

Object ID (CCSDS): 40499

Country: UNITED STATES OF AMERICA (US)

Current information (Y/N): Y

RCS size: SMALL

Orbital parameters

Period: 100.229 minutes

Inclination: 98.7078 deg

SMA: 7147.539 km

Apoapsis: 775.778 km

Periapsis: 763.03 km

RAAN: 215.3147 deg

Eccentricy: 0.0008918

Argument of periapsis: 172.3259 deg

Mean anomaly: 187.8064 deg

Mean motion: 14.36706219 rev/day

Mean motion (dot): 0.00003628 rev/day2

B* drag term: 0.0012455 1/REarth

Two-line elements (TLE)

Creation date: July 5, 2025, 4:36 a.m.

Reference frame: TEME

Reference center: EARTH

Epoch: July 4, 2025, 9:32 p.m. UTC

TLE line 0: 0 DMSP 5D-2 F13 DEB

TLE line 1: 1 40499U 95015CN 25185.89789555 .00003628 00000-0 12455-2 0 9991

TLE line 2: 2 40499 98.7078 215.3147 0008918 172.3259 187.8064 14.36706219535270

Live tracking on map

Real-time ground track for satellite DMSP 5D-2 F13 DEB.

In-orbit conjunctions

A list of the most updated potential collisions computed for object DMSP 5D-2 F13 DEB.

Target Orbit TCA Probability of collision Miss distance Type
VANGUARD 1 MEO 2025-01-11 15:24:26 0.0001935991 783.0 (m) PAYLOAD
COSMOS 1680 LEO 2025-01-06 18:08:03 0.0001888127 440.0 (m) PAYLOAD
FENGYUN 1C DEB SSO 2024-11-12 22:39:12 0.0001001046 191.0 (m) DEBRIS

Associated space launch

Military meteorological satellite

DMSP 5D-2 F13 DEB was lifted into orbit during the mission ‘Atlas E | DMSP-5D2 F13’, on board a Atlas E space rocket.

The launch took place on March 24, 1995, 2:05 p.m. from Space Launch Complex 3W.

For more information about the launch, click the button.

Launch to space Atlas E | DMSP-5D2 F13
Atlas E | DMSP-5D2 F13

Agency: N/A

Status: Launch Successful

Launch date: March 24, 1995, 2:05 p.m. UTC

Rocket: Atlas E

Launch pad: Space Launch Complex 3W

Location: Vandenberg SFB, CA, USA

...

Latest news about this satellite

There are no fresh news available about this satellite. Check back as we update our databases every day.


Newsletter sign-up

Weekly statistics, charts and insights to help you stay on top of the space industry.